GW4244 Weather Reports


Display with metric or nautical units.
time (UTC)temp
F
wind
direction
speed
MPH
gust
MPH
rain 1hr
in
rain 24hr
in
rain mn
in
humidity
%
barometer
mb
20260510094738 61 110 1.0 1.0 0.00 0.00 0.00 86 1012.2
20260510094234 62 110 0.0 0.0 0.00 0.00 0.00 86 1012.1
20260510093730 62 110 0.0 0.0 0.00 0.00 0.00 86 1012.0
20260510093227 62 110 0.0 0.0 0.00 0.00 0.00 85 1012.1
20260510092723 62 110 0.0 0.0 0.00 0.00 0.00 85 1011.8
20260510092219 62 110 0.0 0.0 0.00 0.00 0.00 85 1011.7
20260510091715 62 111 0.0 0.0 0.00 0.00 0.00 85 1011.4
20260510091212 63 110 0.0 0.0 0.00 0.00 0.00 84 1011.5
20260510090708 62 119 1.0 1.0 0.00 0.00 0.00 84 1011.3
20260510090205 62 120 0.0 0.0 0.00 0.00 0.00 84 1011.5
20260510085700 62 150 0.0 0.0 0.00 0.00 0.00 85 1011.6
20260510085156 63 150 0.0 0.0 0.00 0.00 0.00 84 1011.4
20260510084652 63 110 0.0 1.0 0.00 0.00 0.00 85 1011.3
20260510084149 63 121 0.0 0.0 0.00 0.00 0.00 85 1011.2
20260510083645 63 82 0.0 0.0 0.00 0.00 0.00 85 1011.4
20260510083142 63 78 0.0 0.0 0.00 0.00 0.00 85 1011.5
20260510082638 63 78 0.0 0.0 0.00 0.00 0.00 85 1011.4
20260510082134 63 78 0.0 0.0 0.00 0.00 0.00 85 1011.3
20260510081629 63 97 1.0 1.0 0.00 0.00 0.00 86 1011.2
20260510081125 63 97 1.0 1.0 0.00 0.00 0.00 85 1011.0
20260510080619 63 338 1.0 2.0 0.00 0.00 0.00 87 1011.1
20260510080116 63 224 3.0 3.0 0.00 0.00 0.00 88 1010.6
20260510075613 64 123 0.0 0.0 0.00 0.00 0.00 87 1010.4
20260510075110 64 132 0.0 0.0 0.00 0.00 0.00 87 1010.4
20260510074602 64 132 0.0 0.0 0.00 0.00 0.00 86 1010.5
20260510074057 63 132 0.0 0.0 0.00 0.00 0.00 85 1010.4
20260510073554 63 132 0.0 0.0 0.00 0.00 0.00 85 1010.3
20260510073051 64 132 0.0 0.0 0.00 0.00 0.00 86 1010.2
20260510072547 64 132 0.0 0.0 0.00 0.00 0.00 85 1010.6
20260510072043 64 132 0.0 0.0 0.00 0.00 0.00 85 1010.8
20260510071539 64 141 0.0 0.0 0.00 0.00 0.00 85 1010.8
20260510071038 64 144 0.0 1.0 0.00 0.00 0.00 85 1011.0
20260510070534 64 145 0.0 0.0 0.00 0.00 0.00 86 1011.0
20260510070031 63 136 0.0 0.0 0.00 0.00 0.00 87 1010.7
20260510065527 63 208 0.0 0.0 0.00 0.00 0.00 88 1010.9
20260510065023 64 208 0.0 1.0 0.00 0.00 0.00 87 1010.9
20260510064520 64 214 2.0 2.0 0.00 0.00 0.00 86 1011.1
20260510064018 64 195 1.0 1.0 0.00 0.00 0.00 86 1011.2
20260510063514 64 122 0.0 0.0 0.00 0.00 0.00 85 1011.4
20260510063011 64 121 0.0 1.0 0.00 0.00 0.00 84 1011.5
20260510062507 65 121 1.0 1.0 0.00 0.00 0.00 83 1011.8
20260510062002 65 135 0.0 0.0 0.00 0.00 0.00 83 1012.0
20260510061459 65 63 0.0 0.0 0.00 0.00 0.00 84 1012.2
20260510060955 64 80 0.0 0.0 0.00 0.00 0.00 86 1012.3
20260510060452 63 211 1.0 1.0 0.00 0.00 0.00 88 1012.4
20260510055948 64 209 0.0 0.0 0.00 0.00 0.00 87 1012.3
20260510055444 64 209 1.0 1.0 0.00 0.00 0.00 87 1012.3
20260510054943 64 209 1.0 1.0 0.00 0.00 0.00 87 1012.4
20260510054437 64 207 1.0 1.0 0.00 0.00 0.00 87 1012.6
20260510053932 65 196 2.0 2.0 0.00 0.00 0.00 86 1012.3
20260510053428 66 148 1.0 1.0 0.00 0.00 0.00 79 1012.5
20260510052925 66 71 0.0 0.0 0.00 0.00 0.00 78 1012.5
20260510052421 66 71 0.0 0.0 0.00 0.00 0.00 78 1012.5
20260510051917 66 71 0.0 0.0 0.00 0.00 0.00 78 1012.7
20260510051414 66 71 0.0 0.0 0.00 0.00 0.00 78 1012.5
20260510050910 66 40 0.0 0.0 0.00 0.00 0.00 79 1012.7
20260510050407 66 72 0.0 0.0 0.00 0.00 0.00 79 1012.5
20260510045904 65 66 0.0 0.0 0.00 0.00 0.00 81 1012.3
20260510045401 65 105 0.0 1.0 0.00 0.00 0.00 83 1012.4
20260510044858 65 107 0.0 0.0 0.00 0.00 0.00 81 1012.3
20260510044355 65 107 0.0 1.0 0.00 0.00 0.00 82 1012.1
20260510043851 64 116 0.0 1.0 0.00 0.00 0.00 83 1011.6
20260510043347 64 117 0.0 0.0 0.00 0.00 0.00 84 1011.6
20260510042846 63 160 0.0 0.0 0.00 0.00 0.00 87 1011.3
20260510042341 63 169 0.0 0.0 0.00 0.00 0.00 87 1011.3
20260510041837 64 169 0.0 0.0 0.00 0.00 0.00 86 1011.1
20260510041334 64 169 0.0 0.0 0.00 0.00 0.00 86 1011.1
20260510040832 64 169 0.0 0.0 0.00 0.00 0.00 86 1011.1
20260510040328 64 169 0.0 0.0 0.00 0.00 0.00 86 1011.2
20260510035824 64 169 0.0 0.0 0.00 0.00 0.00 85 1011.0
20260510035320 64 169 0.0 0.0 0.00 0.00 0.00 84 1011.2
20260510034816 64 176 0.0 1.0 0.00 0.00 0.00 83 1011.0
20260510034314 64 198 0.0 0.0 0.00 0.00 0.00 82 1011.2
20260510033810 64 198 0.0 0.0 0.00 0.00 0.00 81 1011.0
20260510033307 65 208 1.0 1.0 0.00 0.00 0.00 81 1011.3
20260510032804 65 152 0.0 0.0 0.00 0.00 0.00 79 1011.3
20260510032300 65 152 0.0 0.0 0.00 0.00 0.00 79 1011.3
20260510031756 65 153 0.0 0.0 0.00 0.00 0.00 80 1011.6
20260510031252 64 198 0.0 0.0 0.00 0.00 0.00 82 1011.5
20260510030750 64 198 0.0 0.0 0.00 0.00 0.00 83 1011.2
20260510030243 63 198 0.0 0.0 0.00 0.00 0.00 86 1011.0
20260510025740 62 198 0.0 0.0 0.00 0.00 0.00 86 1010.8
20260510025238 63 213 2.0 2.0 0.00 0.00 0.00 85 1010.8
20260510024734 65 222 4.0 4.0 0.00 0.00 0.00 81 1010.4
20260510024230 65 124 0.0 0.0 0.00 0.00 0.00 76 1010.1
20260510023726 66 124 0.0 0.0 0.00 0.00 0.00 75 1010.0
20260510023223 66 124 0.0 0.0 0.00 0.00 0.00 74 1009.9
20260510022719 66 124 0.0 0.0 0.00 0.00 0.00 73 1009.6
20260510022214 66 124 0.0 0.0 0.00 0.00 0.00 74 1009.7
20260510021709 66 124 0.0 0.0 0.00 0.00 0.00 73 1009.5
20260510021207 67 124 0.0 0.0 0.00 0.00 0.00 70 1009.6
20260510020702 68 124 0.0 0.0 0.00 0.00 0.00 69 1009.4
20260510020157 68 124 0.0 0.0 0.00 0.00 0.00 67 1009.3
20260510015653 68 124 0.0 0.0 0.00 0.00 0.00 66 1009.2
20260510015150 68 124 0.0 0.0 0.00 0.00 0.00 66 1009.0
20260510014649 69 124 0.0 0.0 0.00 0.00 0.00 66 1009.1
20260510014147 69 124 0.0 0.0 0.00 0.00 0.00 65 1008.8
20260510013642 69 124 0.0 0.0 0.00 0.00 0.00 64 1008.7
20260510013138 69 124 0.0 0.0 0.00 0.00 0.00 64 1008.5
20260510012638 70 124 0.0 0.0 0.00 0.00 0.00 61 1008.6
20260510012134 71 124 0.0 0.0 0.00 0.00 0.00 61 1008.4
20260510011634 72 124 0.0 0.0 0.00 0.00 0.00 58 1008.4
20260510011130 73 124 0.0 0.0 0.00 0.00 0.00 59 1008.4
20260510010626 74 124 0.0 0.0 0.00 0.00 0.00 56 1008.2
20260510010124 75 124 0.0 0.0 0.00 0.00 0.00 54 1008.1
20260510005619 76 124 0.0 0.0 0.00 0.00 0.00 50 1007.9
20260510005117 78 124 0.0 0.0 0.00 0.00 0.00 48 1008.1
20260510004615 79 124 0.0 0.0 0.00 0.00 0.00 46 1008.2
20260510004113 81 124 0.0 0.0 0.00 0.00 0.00 45 1008.0
20260510003609 81 124 0.0 0.0 0.00 0.00 0.00 46 1008.0
20260510003105 81 124 0.0 0.0 0.00 0.00 0.00 43 1007.8
20260510002600 80 124 0.0 0.0 0.00 0.00 0.00 46 1007.9
20260510002057 80 124 0.0 0.0 0.00 0.00 0.00 43 1007.9
20260510001554 80 125 0.0 0.0 0.00 0.00 0.00 44 1007.9
20260510001053 80 125 0.0 0.0 0.00 0.00 0.00 45 1008.1
20260510000548 80 123 0.0 0.0 0.00 0.00 0.00 44 1007.8
20260510000046 80 122 0.0 1.0 0.00 0.00 0.00 44 1008.0
20260509235542 80 135 0.0 0.0 0.00 0.00 0.00 42 1008.0
20260509235039 81 129 2.0 2.0 0.00 0.00 0.00 40 1008.2
20260509234535 81 120 0.0 0.0 0.00 0.00 0.00 41 1007.9
20260509234033 81 123 0.0 0.0 0.00 0.00 0.00 40 1008.0
20260509233530 81 131 0.0 0.0 0.00 0.00 0.00 41 1008.0
20260509233027 81 126 0.0 0.0 0.00 0.00 0.00 42 1008.1
20260509232524 81 137 0.0 0.0 0.00 0.00 0.00 44 1008.2
20260509232020 81 127 0.0 0.0 0.00 0.00 0.00 47 1008.1
20260509231517 81 213 2.0 3.0 0.00 0.00 0.00 45 1008.2
20260509231015 81 128 0.0 0.0 0.00 0.00 0.00 45 1008.2
20260509230511 81 112 0.0 0.0 0.00 0.00 0.00 44 1008.3
20260509230008 81 122 0.0 1.0 0.00 0.00 0.00 45 1008.3
20260509225503 81 212 2.0 2.0 0.00 0.00 0.00 43 1008.3
20260509224959 82 153 0.0 0.0 0.00 0.00 0.00 45 1008.1
20260509224449 82 110 0.0 0.0 0.00 0.00 0.00 44 1008.5
20260509223946 82 132 0.0 0.0 0.00 0.00 0.00 45 1008.4
20260509223443 82 124 0.0 0.0 0.00 0.00 0.00 45 1008.4
20260509222941 82 212 3.0 3.0 0.00 0.00 0.00 42 1008.4
20260509222436 82 216 2.0 3.0 0.00 0.00 0.00 42 1008.5
20260509221932 83 198 0.0 1.0 0.00 0.00 0.00 45 1008.4
20260509221429 85 223 3.0 3.0 0.00 0.00 0.00 39 1008.6
20260509220924 84 140 0.0 0.0 0.00 0.00 0.00 40 1008.6
20260509220420 83 166 0.0 0.0 0.00 0.00 0.00 43 1008.6
20260509215917 84 231 3.0 4.0 0.00 0.00 0.00 40 1008.7
20260509215412 84 123 0.0 0.0 0.00 0.00 0.00 40 1008.6
20260509214910 85 129 0.0 0.0 0.00 0.00 0.00 39 1008.7
20260509214407 84 137 0.0 0.0 0.00 0.00 0.00 37 1008.7
20260509213904 83 111 0.0 0.0 0.00 0.00 0.00 38 1008.7
20260509213359 83 143 1.0 2.0 0.00 0.00 0.00 36 1008.7
20260509212857 84 122 1.0 2.0 0.00 0.00 0.00 37 1008.9
20260509212354 85 116 2.0 2.0 0.00 0.00 0.00 37 1009.0
20260509211850 83 147 2.0 2.0 0.00 0.00 0.00 39 1009.1
20260509211341 86 60 1.0 2.0 0.00 0.00 0.00 35 1009.1
20260509210837 85 148 0.0 0.0 0.00 0.00 0.00 38 1009.2
20260509210335 84 140 0.0 0.0 0.00 0.00 0.00 39 1009.1
20260509205834 86 237 1.0 2.0 0.00 0.00 0.00 40 1009.2
20260509205329 85 245 1.0 1.0 0.00 0.00 0.00 42 1009.3
20260509204826 85 128 0.0 1.0 0.00 0.00 0.00 41 1009.2
20260509204322 86 226 1.0 1.0 0.00 0.00 0.00 40 1009.4
20260509203819 86 297 2.0 2.0 0.00 0.00 0.00 36 1009.3
20260509203316 85 243 1.0 1.0 0.00 0.00 0.00 44 1009.3
20260509202812 85 195 0.0 1.0 0.00 0.00 0.00 45 1009.4
20260509202309 85 248 1.0 2.0 0.00 0.00 0.00 44 1009.3
20260509201807 83 235 2.0 2.0 0.00 0.00 0.00 44 1009.7
20260509201305 84 231 4.0 4.0 0.00 0.00 0.00 41 1009.6
20260509200801 84 77 0.0 0.0 0.00 0.00 0.00 46 1009.6
20260509200256 84 3 2.0 3.0 0.00 0.00 0.00 43 1009.7
20260509195752 82 144 0.0 0.0 0.00 0.00 0.00 44 1009.8
20260509195247 83 108 0.0 1.0 0.00 0.00 0.00 48 1010.1
20260509194742 84 232 1.0 2.0 0.00 0.00 0.00 45 1010.0
20260509194239 82 120 1.0 1.0 0.00 0.00 0.00 50 1010.0
20260509193736 84 214 3.0 4.0 0.00 0.00 0.00 49 1009.9
20260509193235 84 137 0.0 0.0 0.00 0.00 0.00 49 1009.8
20260509192732 82 308 2.0 2.0 0.00 0.00 0.00 50 1009.9
20260509192227 82 281 1.0 1.0 0.00 0.00 0.00 56 1010.0
20260509191723 81 129 0.0 0.0 0.00 0.00 0.00 49 1010.0
20260509191219 83 242 2.0 3.0 0.00 0.00 0.00 54 1010.1
20260509190715 82 2 4.0 4.0 0.00 0.00 0.00 50 1010.1
20260509190213 82 288 3.0 3.0 0.00 0.00 0.00 54 1010.0
20260509185710 82 231 3.0 3.0 0.00 0.00 0.00 53 1010.2
20260509185206 81 223 2.0 2.0 0.00 0.00 0.00 52 1010.2
20260509184704 82 344 1.0 2.0 0.00 0.00 0.00 54 1010.1
20260509184201 81 106 0.0 0.0 0.00 0.00 0.00 55 1010.2
20260509183657 82 212 1.0 1.0 0.00 0.00 0.00 48 1010.3
20260509183152 80 5 1.0 2.0 0.00 0.00 0.00 54 1010.3
20260509182648 80 108 0.0 0.0 0.00 0.00 0.00 59 1010.3
20260509182146 80 233 1.0 2.0 0.00 0.00 0.00 57 1010.4
20260509181643 80 237 2.0 2.0 0.00 0.00 0.00 55 1010.4
20260509181141 80 233 0.0 1.0 0.00 0.00 0.00 60 1010.3
20260509180637 81 252 2.0 2.0 0.00 0.00 0.00 61 1010.2
20260509180134 80 238 1.0 2.0 0.00 0.00 0.00 65 1010.5
20260509175629 80 290 1.0 1.0 0.00 0.00 0.00 65 1010.7
20260509175127 78 237 1.0 2.0 0.00 0.00 0.00 65 1010.5
20260509174622 79 214 5.0 7.0 0.00 0.00 0.00 64 1010.8
20260509174118 78 226 0.0 0.0 0.00 0.00 0.00 63 1010.6
20260509173613 78 288 1.0 2.0 0.00 0.00 0.00 64 1010.9
20260509173104 78 213 1.0 1.0 0.00 0.00 0.00 64 1010.6
20260509172601 77 214 1.0 2.0 0.00 0.00 0.00 69 1011.1
20260509172057 78 232 2.0 4.0 0.00 0.00 0.00 74 1011.1
20260509171553 77 230 2.0 2.0 0.00 0.00 0.00 70 1011.0
20260509171049 75 220 4.0 4.0 0.00 0.00 0.00 70 1010.9
20260509170545 76 228 2.0 2.0 0.00 0.00 0.00 71 1011.0
20260509170041 75 224 3.0 3.0 0.00 0.00 0.00 72 1011.0
20260509165540 75 180 0.0 0.0 0.00 0.00 0.00 76 1010.9
20260509165035 75 204 2.0 2.0 0.00 0.00 0.00 75 1011.0
20260509164532 74 240 2.0 3.0 0.00 0.00 0.00 76 1011.1
20260509164027 75 220 1.0 2.0 0.00 0.00 0.00 79 1011.1
20260509163525 74 236 2.0 2.0 0.00 0.00 0.00 80 1011.0
20260509163020 72 202 0.0 0.0 0.00 0.00 0.00 84 1010.9
20260509162518 72 213 2.0 2.0 0.00 0.00 0.00 81 1011.2
20260509162014 72 238 2.0 3.0 0.00 0.00 0.00 81 1011.2
20260509161510 71 233 2.0 3.0 0.00 0.00 0.00 81 1011.1
20260509161000 71 222 2.0 3.0 0.00 0.00 0.00 82 1011.1
20260509160455 71 208 0.0 0.0 0.00 0.00 0.00 84 1011.0
20260509155950 71 174 3.0 3.0 0.00 0.00 0.00 85 1011.1
20260509155447 71 220 4.0 4.0 0.00 0.00 0.00 84 1011.2
20260509154943 70 238 0.0 0.0 0.00 0.00 0.00 86 1011.1
20260509154439 70 227 0.0 0.0 0.00 0.00 0.00 90 1011.1
20260509153937 68 245 1.0 2.0 0.00 0.00 0.00 90 1010.9
20260509153434 67 275 1.0 1.0 0.00 0.00 0.00 92 1011.0
20260509152931 65 229 2.0 2.0 0.00 0.00 0.00 95 1011.1
20260509152427 65 235 4.0 4.0 0.00 0.00 0.00 99 1011.0
20260509151924 65 158 1.0 1.0 0.00 0.00 0.00 99 1011.0
20260509151420 66 182 1.0 1.0 0.00 0.00 0.00 99 1011.0
20260509150918 65 207 2.0 2.0 0.00 0.00 0.00 99 1011.1
20260509150416 66 207 2.0 2.0 0.00 0.00 0.00 99 1011.1
20260509145914 65 208 1.0 1.0 0.00 0.00 0.00 99 1011.1
20260509145413 64 170 0.0 0.0 0.00 0.00 0.00 99 1011.0
20260509144909 64 148 0.0 0.0 0.00 0.00 0.00 99 1010.9
20260509144406 64 174 0.0 0.0 0.00 0.00 0.00 99 1011.1
20260509143904 62 207 1.0 2.0 0.00 0.00 0.00 99 1010.8
20260509143401 62 151 0.0 0.0 0.00 0.00 0.00 99 1010.8
20260509142857 63 165 0.0 1.0 0.00 0.00 0.00 99 1011.1
20260509142353 62 133 0.0 0.0 0.00 0.00 0.00 99 1011.0
20260509141849 61 159 0.0 0.0 0.00 0.00 0.00 99 1011.0
20260509141346 60 219 1.0 2.0 0.00 0.00 0.00 99 1010.9
20260509140842 61 207 0.0 1.0 0.00 0.00 0.00 99 1011.0
20260509140339 61 200 0.0 0.0 0.00 0.00 0.00 99 1010.8
20260509135837 60 178 0.0 0.0 0.00 0.00 0.00 99 1010.8
20260509135335 60 152 0.0 0.0 0.00 0.00 0.00 99 1010.8
20260509134832 60 128 0.0 0.0 0.00 0.00 0.00 99 1010.7
20260509134329 60 157 0.0 0.0 0.00 0.00 0.00 99 1010.4
20260509133826 59 138 0.0 0.0 0.00 0.00 0.00 99 1010.6
20260509133322 59 115 0.0 0.0 0.00 0.00 0.00 99 1010.6
20260509132822 58 127 0.0 0.0 0.00 0.00 0.00 99 1010.7
20260509132320 58 138 0.0 0.0 0.00 0.00 0.00 99 1010.5
20260509131816 57 102 0.0 0.0 0.00 0.00 0.00 99 1010.6
20260509131313 57 109 0.0 0.0 0.00 0.00 0.00 99 1010.5
20260509130809 57 100 0.0 0.0 0.00 0.00 0.00 99 1010.5
20260509130305 56 98 0.0 0.0 0.00 0.00 0.00 99 1010.4
20260509125802 55 115 0.0 0.0 0.00 0.00 0.00 99 1010.3
20260509125259 55 158 0.0 0.0 0.00 0.00 0.00 99 1010.2
20260509124755 54 157 0.0 0.0 0.00 0.00 0.00 99 1010.2
20260509124251 55 150 0.0 0.0 0.00 0.00 0.00 99 1010.1
20260509123749 55 149 0.0 0.0 0.00 0.00 0.00 99 1010.3
20260509123247 54 149 0.0 0.0 0.00 0.00 0.00 99 1010.1
20260509122742 54 129 0.0 0.0 0.00 0.00 0.00 99 1010.1
20260509122239 54 148 0.0 0.0 0.00 0.00 0.00 99 1010.0
20260509121736 54 164 0.0 0.0 0.00 0.00 0.00 99 1010.2
20260509121233 54 189 0.0 0.0 0.00 0.00 0.00 99 1010.0
20260509120732 54 184 0.0 0.0 0.00 0.00 0.00 99 1010.1
20260509120229 54 132 0.0 0.0 0.00 0.00 0.00 99 1009.9
20260509115727 54 122 0.0 0.0 0.00 0.00 0.00 99 1009.8
20260509115224 54 126 0.0 0.0 0.00 0.00 0.00 99 1009.7
20260509114722 55 122 0.0 0.0 0.00 0.00 0.00 99 1009.7
20260509114220 55 136 0.0 0.0 0.00 0.00 0.00 99 1009.6
20260509113719 55 136 0.0 0.0 0.00 0.00 0.00 99 1009.8
20260509113216 55 136 0.0 0.0 0.00 0.00 0.00 99 1009.7
20260509112712 55 167 0.0 0.0 0.00 0.00 0.00 99 1009.6
20260509112209 55 168 0.0 0.0 0.00 0.00 0.00 99 1009.5
20260509111706 55 172 0.0 0.0 0.00 0.00 0.00 99 1009.7
20260509111203 55 173 0.0 0.0 0.00 0.00 0.00 99 1009.6
20260509110700 55 174 0.0 0.0 0.00 0.00 0.00 99 1009.6
20260509110157 55 137 0.0 0.0 0.00 0.00 0.00 99 1009.5
20260509105655 55 133 0.0 0.0 0.00 0.00 0.00 99 1009.5
20260509105152 55 133 0.0 0.0 0.00 0.00 0.00 99 1009.5
20260509104649 55 135 0.0 0.0 0.00 0.00 0.00 99 1009.5
20260509104146 55 137 0.0 0.0 0.00 0.00 0.00 99 1009.5
20260509103644 55 138 0.0 0.0 0.00 0.00 0.00 99 1009.6
20260509103142 55 115 0.0 0.0 0.00 0.00 0.00 99 1009.5
20260509102639 55 115 0.0 0.0 0.00 0.00 0.00 99 1009.6
20260509102136 55 115 0.0 0.0 0.00 0.00 0.00 99 1009.8
20260509101632 55 173 0.0 1.0 0.00 0.00 0.00 99 1009.8
20260509101129 55 173 0.0 0.0 0.00 0.00 0.00 99 1009.8
20260509100627 55 173 0.0 0.0 0.00 0.00 0.00 99 1009.6
20260509100124 55 173 0.0 0.0 0.00 0.00 0.00 99 1009.5
20260509095621 55 173 0.0 0.0 0.00 0.00 0.00 99 1009.7
20260509095118 55 173 0.0 0.0 0.00 0.00 0.00 99 1009.7